TimeEST,TemperatureF,Dew PointF,Humidity,Sea Level PressureIn,VisibilityMPH,Wind Direction,Wind SpeedMPH,Gust SpeedMPH,PrecipitationIn,Events,Conditions,WindDirDegrees,DateUTC
12:15 AM,41.0,30.2,65,29.77,10.0,SW,4.6,-,N/A,,Overcast,220,2013-03-01 05:15:00
12:35 AM,41.0,30.2,65,29.78,10.0,WSW,4.6,-,N/A,,Overcast,240,2013-03-01 05:35:00
12:55 AM,41.0,30.2,65,29.77,10.0,West,9.2,-,N/A,,Overcast,260,2013-03-01 05:55:00
1:15 AM,41.0,30.2,65,29.78,10.0,WSW,4.6,-,N/A,,Overcast,240,2013-03-01 06:15:00
1:35 AM,39.2,30.2,70,29.77,10.0,WNW,6.9,-,N/A,,Mostly Cloudy,300,2013-03-01 06:35:00
1:55 AM,39.2,30.2,70,29.78,10.0,WNW,6.9,-,N/A,,Scattered Clouds,290,2013-03-01 06:55:00
2:15 AM,39.2,28.4,65,29.78,10.0,WNW,9.2,-,N/A,,Clear,290,2013-03-01 07:15:00
2:35 AM,39.2,28.4,65,29.78,10.0,WNW,4.6,-,N/A,,Mostly Cloudy,290,2013-03-01 07:35:00
3:15 AM,39.2,30.2,70,29.78,10.0,WSW,3.5,-,N/A,,Overcast,240,2013-03-01 08:15:00
3:35 AM,39.2,30.2,70,29.78,10.0,West,3.5,-,N/A,,Overcast,270,2013-03-01 08:35:00
3:55 AM,39.2,28.4,65,29.78,10.0,West,4.6,-,N/A,,Mostly Cloudy,260,2013-03-01 08:55:00
4:15 AM,37.4,28.4,70,29.79,10.0,West,3.5,-,N/A,,Scattered Clouds,260,2013-03-01 09:15:00
4:35 AM,37.4,28.4,70,29.78,10.0,WNW,5.8,-,N/A,,Scattered Clouds,290,2013-03-01 09:35:00
4:55 AM,37.4,28.4,70,29.79,10.0,West,4.6,-,N/A,,Clear,280,2013-03-01 09:55:00
5:15 AM,37.4,26.6,65,29.80,10.0,WNW,4.6,-,N/A,,Clear,290,2013-03-01 10:15:00
5:35 AM,37.4,26.6,65,29.80,10.0,West,5.8,-,N/A,,Scattered Clouds,280,2013-03-01 10:35:00
5:55 AM,37.4,26.6,65,29.80,10.0,West,6.9,-,N/A,,Overcast,280,2013-03-01 10:55:00
6:15 AM,39.2,26.6,61,29.80,10.0,West,3.5,-,N/A,,Overcast,260,2013-03-01 11:15:00
6:35 AM,39.2,26.6,61,29.81,10.0,SW,4.6,-,N/A,,Overcast,230,2013-03-01 11:35:00
6:55 AM,39.2,26.6,61,29.81,10.0,West,6.9,-,N/A,,Overcast,270,2013-03-01 11:55:00
7:15 AM,41.0,26.6,57,29.83,10.0,WSW,5.8,-,N/A,,Overcast,250,2013-03-01 12:15:00
7:35 AM,41.0,26.6,57,29.84,10.0,West,4.6,-,N/A,,Overcast,270,2013-03-01 12:35:00
7:55 AM,41.0,26.6,57,29.85,10.0,West,4.6,-,N/A,,Overcast,260,2013-03-01 12:55:00
8:35 AM,41.0,28.4,61,29.86,10.0,WSW,4.6,-,N/A,,Overcast,250,2013-03-01 13:35:00
8:55 AM,41.0,28.4,61,29.85,10.0,West,4.6,-,N/A,,Overcast,260,2013-03-01 13:55:00
9:15 AM,39.2,30.2,70,29.86,10.0,West,8.1,-,N/A,,Overcast,270,2013-03-01 14:15:00
9:35 AM,39.2,30.2,70,29.86,10.0,West,6.9,-,N/A,,Overcast,270,2013-03-01 14:35:00
9:55 AM,39.2,30.2,70,29.87,10.0,West,6.9,-,N/A,,Overcast,270,2013-03-01 14:55:00
10:15 AM,41.0,30.2,65,29.87,10.0,West,6.9,-,N/A,,Overcast,280,2013-03-01 15:15:00
10:35 AM,41.0,30.2,65,29.87,10.0,WNW,8.1,17.3,N/A,,Overcast,290,2013-03-01 15:35:00
10:55 AM,41.0,30.2,65,29.87,10.0,West,10.4,-,N/A,,Overcast,280,2013-03-01 15:55:00
11:15 AM,41.0,30.2,65,29.87,10.0,West,10.4,-,N/A,,Overcast,280,2013-03-01 16:15:00
11:35 AM,41.0,30.2,65,29.87,10.0,NW,9.2,-,N/A,,Overcast,310,2013-03-01 16:35:00
11:55 AM,41.0,28.4,61,29.88,10.0,West,16.1,-,N/A,,Overcast,260,2013-03-01 16:55:00
12:15 PM,41.0,28.4,61,29.87,10.0,West,13.8,-,N/A,,Overcast,280,2013-03-01 17:15:00
12:35 PM,42.8,28.4,57,29.86,10.0,West,12.7,18.4,N/A,,Overcast,270,2013-03-01 17:35:00
12:55 PM,42.8,28.4,57,29.85,10.0,WNW,16.1,19.6,N/A,,Overcast,290,2013-03-01 17:55:00
1:15 PM,42.8,28.4,57,29.85,10.0,WNW,13.8,21.9,N/A,,Overcast,300,2013-03-01 18:15:00
1:35 PM,42.8,28.4,57,29.85,10.0,WNW,9.2,19.6,N/A,,Overcast,290,2013-03-01 18:35:00
1:55 PM,41.0,28.4,61,29.85,10.0,West,10.4,-,N/A,,Overcast,270,2013-03-01 18:55:00
2:15 PM,41.0,28.4,61,29.85,10.0,WNW,13.8,18.4,N/A,,Overcast,300,2013-03-01 19:15:00
2:35 PM,41.0,28.4,61,29.85,10.0,West,11.5,17.3,N/A,,Overcast,270,2013-03-01 19:35:00
2:55 PM,41.0,28.4,61,29.84,10.0,WNW,6.9,-,N/A,,Overcast,290,2013-03-01 19:55:00
3:15 PM,41.0,28.4,61,29.84,10.0,West,11.5,-,N/A,,Overcast,270,2013-03-01 20:15:00
3:35 PM,41.0,28.4,61,29.84,10.0,WNW,12.7,17.3,N/A,,Overcast,290,2013-03-01 20:35:00
3:55 PM,41.0,28.4,61,29.85,10.0,West,11.5,16.1,N/A,,Overcast,280,2013-03-01 20:55:00
4:15 PM,41.0,28.4,61,29.85,10.0,West,9.2,-,N/A,,Overcast,280,2013-03-01 21:15:00
4:35 PM,41.0,28.4,61,29.85,10.0,WSW,11.5,-,N/A,,Overcast,250,2013-03-01 21:35:00
4:55 PM,41.0,26.6,57,29.86,10.0,West,8.1,-,N/A,,Overcast,280,2013-03-01 21:55:00
5:15 PM,41.0,26.6,57,29.86,10.0,West,8.1,-,N/A,,Overcast,270,2013-03-01 22:15:00
5:35 PM,39.2,26.6,61,29.87,10.0,West,9.2,-,N/A,,Overcast,270,2013-03-01 22:35:00
5:55 PM,39.2,26.6,61,29.87,10.0,West,6.9,-,N/A,,Overcast,270,2013-03-01 22:55:00
6:15 PM,37.4,26.6,65,29.87,10.0,West,6.9,-,N/A,,Overcast,270,2013-03-01 23:15:00
6:35 PM,37.4,26.6,65,29.88,10.0,WSW,6.9,-,N/A,,Overcast,250,2013-03-01 23:35:00
6:55 PM,37.4,26.6,65,29.88,10.0,West,6.9,-,N/A,,Overcast,270,2013-03-01 23:55:00
7:15 PM,37.4,26.6,65,29.88,10.0,WNW,5.8,-,N/A,,Overcast,290,2013-03-02 00:15:00
7:35 PM,35.6,26.6,70,29.89,10.0,West,3.5,-,N/A,,Overcast,270,2013-03-02 00:35:00
7:55 PM,37.4,26.6,65,29.90,10.0,WSW,4.6,-,N/A,,Overcast,250,2013-03-02 00:55:00
8:15 PM,37.4,26.6,65,29.90,10.0,WSW,6.9,-,N/A,,Overcast,250,2013-03-02 01:15:00
8:35 PM,37.4,26.6,65,29.91,10.0,West,4.6,-,N/A,,Overcast,270,2013-03-02 01:35:00
8:55 PM,37.4,26.6,65,29.91,10.0,West,3.5,-,N/A,,Overcast,280,2013-03-02 01:55:00
9:15 PM,37.4,26.6,65,29.91,10.0,West,4.6,-,N/A,,Overcast,270,2013-03-02 02:15:00
9:35 PM,37.4,26.6,65,29.91,10.0,WNW,3.5,-,N/A,,Overcast,300,2013-03-02 02:35:00
9:55 PM,37.4,26.6,65,29.91,10.0,WNW,3.5,-,N/A,,Overcast,290,2013-03-02 02:55:00
10:15 PM,37.4,24.8,60,29.91,10.0,WNW,4.6,-,N/A,,Overcast,290,2013-03-02 03:15:00
10:35 PM,35.6,24.8,65,29.92,10.0,NW,3.5,-,N/A,,Overcast,320,2013-03-02 03:35:00
10:55 PM,35.6,26.6,70,29.92,10.0,NW,3.5,-,N/A,,Overcast,320,2013-03-02 03:55:00
11:15 PM,35.6,24.8,65,29.91,10.0,WNW,3.5,-,N/A,,Overcast,300,2013-03-02 04:15:00
11:35 PM,35.6,23.0,60,29.91,10.0,NW,3.5,-,N/A,,Overcast,310,2013-03-02 04:35:00
11:55 PM,35.6,24.8,65,29.91,10.0,Calm,Calm,-,N/A,,Overcast,0,2013-03-02 04:55:00